Weather History for Sandberg, CA

Change the Weather History Date:

Monday, October 28, 2013

  Actual Average Record
Temperature  
Mean Temperature 47 °F 56 °F  
Max Temperature 53 °F 63 °F 83 °F (2003)
Min Temperature 40 °F 48 °F 23 °F (1971)
Degree Days  
Heating Degree Days 18 10  
Month to date heating degree days 125 191  
Since 1 July heating degree days 172 269  
Cooling Degree Days 0 0  
Month to date cooling degree days 51 48  
Year to date cooling degree days 1561 994  
Moisture  
Dew Point 38 °F    
Average Humidity 72    
Maximum Humidity 93    
Minimum Humidity 50    
Precipitation  
Precipitation 0.03 in 0.02 in 0.80 in (1994)
Month to date precipitation 0.23 0.52  
Year to date precipitation 3.22 9.22  
Since 1 July precipitation 0.31 0.74  
Sea Level Pressure  
Sea Level Pressure 29.79 in    
Wind  
Wind Speed 11 mph (SSW)    
Max Wind Speed 21 mph    
Max Gust Speed 30 mph    
Visibility 4 miles    
Events Fog , Rain    
T = Trace of Precipitation, MM = Missing Value Source: NWS Daily Summary

Daily Weather History Graph

Daily Weather History Graph

Search for Another Location

Airport:

Trip Planner

Search our weather history database for the weather conditions in past years. The results will help you decide how hot, cold, wet, or windy it might be!

Date:

Astronomy

Oct. 28, 2013 Rise Set
Actual Time 7:12 AM PDT 6:04 PM PDT
Civil Twilight 6:46 AM PDT 6:30 PM PDT
Nautical Twilight 6:16 AM PDT 7:00 PM PDT
Astronomical Twilight 5:47 AM PDT 7:29 PM PDT
Moon 1:23 AM PDT (10/28) 2:36 PM PDT (10/28)
Length of Visible Light 11h 44m
Length of Day
10h 52m
Waning Crescent, 33% of the Moon is Illuminated
Oct 28
Waning Crescent
Nov 3
New
Nov 9
First Quarter
Nov 17
Full
Nov 25
Last Quarter

Hourly Weather History & Observations

Time (PDT) Temp. Windchill Dew Point Humidity Pressure Visibility Wind Dir Wind Speed Gust Speed Precip Events Conditions
12:01 AM 46.4 °F 40.7 °F 42.8 °F 87% 29.81 in 0.2 mi SSW 12.7 mph 21.9 mph N/A Fog Fog
12:48 AM 46.0 °F 39.0 °F 43.0 °F 89% 29.67 in 0.2 mi SSW 17.3 mph 25.3 mph N/A Fog Fog
1:01 AM 46.4 °F 39.2 °F 42.8 °F 87% 29.78 in 0.5 mi SSW 18.4 mph 28.8 mph N/A Fog Fog
1:07 AM 46.4 °F 39.5 °F 42.8 °F 87% 29.78 in 0.2 mi SSW 17.3 mph 28.8 mph N/A Fog Fog
1:48 AM 46.0 °F 39.9 °F 42.1 °F 86% 29.65 in 0.5 mi SSW 13.8 mph 25.3 mph N/A Fog Fog
1:55 AM 46.4 °F 39.5 °F 42.8 °F 87% 29.78 in 0.2 mi South 17.3 mph 23.0 mph N/A Fog Fog
2:48 AM 45.0 °F 37.6 °F 43.0 °F 93% 29.63 in 0.2 mi South 17.3 mph 24.2 mph N/A Fog Fog
3:48 AM 44.1 °F 38.1 °F 42.1 °F 93% 29.64 in 0.2 mi South 11.5 mph - N/A Fog Fog
4:48 AM 44.1 °F 37.4 °F 41.0 °F 89% 29.64 in 0.2 mi SSW 13.8 mph 19.6 mph N/A Fog Fog
5:48 AM 43.0 °F 36.4 °F 39.9 °F 89% 29.65 in 0.2 mi South 12.7 mph 24.2 mph N/A Fog Fog
6:48 AM 41.0 °F 33.1 °F 39.0 °F 93% 29.68 in 0.2 mi SSW 15.0 mph 20.7 mph N/A Fog Fog
7:48 AM 39.9 °F 35.8 °F 37.0 °F 89% 29.71 in 0.2 mi Variable 5.8 mph - N/A Fog Fog
8:39 AM 39.2 °F 35.0 °F 37.4 °F 93% 29.81 in 1.0 mi South 5.8 mph - N/A   Overcast
8:48 AM 41.0 °F 35.8 °F 37.9 °F 89% 29.73 in 0.2 mi South 8.1 mph - N/A Fog Fog
9:05 AM 41.0 °F 36.4 °F 37.4 °F 87% 29.82 in 0.5 mi South 6.9 mph - N/A Fog Fog
9:18 AM 42.8 °F 37.5 °F 37.4 °F 81% 29.82 in 1.5 mi South 9.2 mph - N/A   Overcast
9:22 AM 42.8 °F 38.6 °F 37.4 °F 81% 29.82 in 8.0 mi South 6.9 mph - N/A   Overcast
9:48 AM 42.1 °F 35.7 °F 37.9 °F 85% 29.76 in 9.0 mi South 11.5 mph 16.1 mph N/A   Overcast
10:26 AM 44.6 °F 39.2 °F 37.4 °F 76% 29.83 in 10.0 mi SSW 10.4 mph 23.0 mph N/A   Overcast
10:48 AM 45.0 °F 40.6 °F 37.0 °F 74% 29.76 in 10.0 mi South 8.1 mph 19.6 mph N/A   Overcast
11:05 AM 46.4 °F 39.0 °F 35.6 °F 66% 29.82 in 10.0 mi SSW 19.6 mph 24.2 mph N/A   Overcast
11:15 AM 50.0 °F - 33.8 °F 54% 29.82 in 10.0 mi SSW 16.1 mph 21.9 mph N/A   Mostly Cloudy
11:29 AM 50.0 °F - 33.8 °F 54% 29.82 in 10.0 mi SSW 15.0 mph 26.5 mph N/A   Scattered Clouds
11:48 AM 52.0 °F - 33.1 °F 49% 29.74 in 10.0 mi SW 15.0 mph 24.2 mph N/A   Mostly Cloudy
12:04 PM 50.0 °F - 33.8 °F 54% 29.82 in 10.0 mi SSW 9.2 mph - N/A   Overcast
12:11 PM 51.8 °F - 33.8 °F 50% 29.82 in 10.0 mi South 13.8 mph 19.6 mph N/A   Overcast
12:28 PM 48.2 °F - 33.8 °F 58% 29.82 in 10.0 mi SSW 12.7 mph 21.9 mph N/A   Overcast
12:48 PM 52.0 °F - 34.0 °F 50% 29.73 in 10.0 mi SSW 16.1 mph 23.0 mph N/A   Overcast
1:34 PM 51.8 °F - 35.6 °F 54% 29.79 in 10.0 mi SSW 13.8 mph 24.2 mph N/A   Overcast
1:43 PM 51.8 °F - 35.6 °F 54% 29.80 in 10.0 mi SSW 15.0 mph 25.3 mph N/A   Overcast
1:48 PM 50.0 °F - 34.0 °F 54% 29.73 in 10.0 mi SSW 11.5 mph 23.0 mph N/A   Overcast
2:48 PM 50.0 °F - 36.0 °F 59% 29.72 in 10.0 mi SSW 16.1 mph 24.2 mph N/A   Overcast
3:48 PM 46.9 °F - 36.0 °F 66% 29.73 in 10.0 mi SSW 17.3 mph 25.3 mph N/A   Overcast
4:42 PM 44.6 °F 38.8 °F 39.2 °F 81% 29.81 in 10.0 mi SSW 11.5 mph - 0.01 in Rain Light Rain
4:48 PM 44.1 °F 39.5 °F 39.0 °F 82% 29.76 in 10.0 mi SSW 8.1 mph - 0.01 in Rain Light Rain
4:50 PM 44.6 °F 39.7 °F 39.2 °F 81% 29.81 in 10.0 mi SSW 9.2 mph - 0.00 in Rain Light Rain
5:48 PM 43.0 °F 37.7 °F 37.9 °F 82% 29.77 in 10.0 mi SSE 9.2 mph - 0.00 in Rain Light Rain
6:18 PM 42.8 °F 37.5 °F 39.2 °F 87% 29.83 in 2.0 mi South 9.2 mph - 0.00 in   Overcast
6:20 PM 42.8 °F 37.5 °F 39.2 °F 87% 29.83 in 1.2 mi South 9.2 mph - 0.00 in   Overcast
6:26 PM 42.8 °F 37.5 °F 39.2 °F 87% 29.83 in 0.5 mi South 9.2 mph - 0.00 in Fog , Rain Light Rain
6:36 PM 42.8 °F 38.0 °F 39.2 °F 87% 29.83 in 0.2 mi South 8.1 mph - 0.00 in Fog Fog
6:48 PM 42.1 °F 36.6 °F 39.0 °F 89% 29.79 in 0.2 mi South 9.2 mph - 0.00 in Fog , Rain Light Rain
7:44 PM 42.8 °F 38.6 °F 39.2 °F 87% 29.85 in 0.2 mi SSE 6.9 mph - 0.00 in Fog Fog
7:48 PM 42.1 °F 38.4 °F 39.0 °F 89% 29.81 in 0.2 mi Variable 5.8 mph - 0.00 in Fog Fog
8:14 PM 42.8 °F 39.3 °F 39.2 °F 87% 29.86 in 0.2 mi South 5.8 mph - 0.02 in Fog , Rain Light Rain
8:48 PM 42.1 °F 38.4 °F 39.0 °F 89% 29.82 in 0.2 mi WSW 5.8 mph - 0.02 in Fog Fog
9:48 PM 41.0 °F 35.8 °F 37.9 °F 89% 29.83 in 0.2 mi SSW 8.1 mph - N/A Fog Fog
10:48 PM 39.9 °F 33.4 °F 37.9 °F 93% 29.84 in 0.2 mi South 10.4 mph - N/A Fog Fog
11:13 PM 39.2 °F 33.6 °F 37.4 °F 93% 29.90 in 0.2 mi SSW 8.1 mph - N/A Fog Fog
11:20 PM 39.2 °F 32.5 °F 37.4 °F 93% 29.90 in 0.5 mi South 10.4 mph - N/A Fog Fog
11:24 PM 39.2 °F 32.0 °F 37.4 °F 93% 29.90 in 0.2 mi South 11.5 mph - N/A Fog Fog
11:48 PM 39.9 °F 33.9 °F 37.0 °F 89% 29.84 in 0.2 mi South 9.2 mph - N/A Fog Fog
11:55 PM 39.2 °F 33.0 °F 37.4 °F 93% 29.90 in 0.2 mi South 9.2 mph - N/A Fog Fog